TimeCDT,TemperatureF,Dew PointF,Humidity,Sea Level PressureIn,VisibilityMPH,Wind Direction,Wind SpeedMPH,Gust SpeedMPH,PrecipitationIn,Events,Conditions,WindDirDegrees,DateUTC
12:15 AM,59.0,44.6,59,29.99,10.0,SSW,3.5,-,N/A,Thunderstorm,Thunderstorm,200,2012-10-01 05:15:00
12:50 AM,60.8,46.4,59,29.99,10.0,WSW,3.5,-,N/A,Thunderstorm,Thunderstorm,240,2012-10-01 05:50:00
12:52 AM,60.1,46.0,60,29.93,10.0,Calm,Calm,-,N/A,Thunderstorm,Thunderstorm,0,2012-10-01 05:52:00
1:19 AM,59.0,48.2,67,30.00,10.0,NNW,13.8,23.0,N/A,,Mostly Cloudy,340,2012-10-01 06:19:00
1:52 AM,57.9,48.9,72,29.94,10.0,WNW,9.2,-,N/A,Thunderstorm,Mostly Cloudy,290,2012-10-01 06:52:00
2:01 AM,57.2,50.0,77,30.00,10.0,WNW,9.2,-,N/A,,Scattered Clouds,290,2012-10-01 07:01:00
2:52 AM,59.0,51.1,75,29.87,10.0,SSE,4.6,-,N/A,,Partly Cloudy,160,2012-10-01 07:52:00
3:52 AM,57.0,50.0,77,29.88,10.0,WNW,6.9,-,N/A,,Partly Cloudy,300,2012-10-01 08:52:00
4:52 AM,55.9,50.0,80,29.90,10.0,NW,10.4,-,N/A,,Clear,310,2012-10-01 09:52:00
5:52 AM,54.0,50.0,86,29.93,10.0,NW,11.5,-,N/A,,Partly Cloudy,320,2012-10-01 10:52:00
6:52 AM,57.0,51.1,81,29.94,10.0,NNW,12.7,-,N/A,,Overcast,330,2012-10-01 11:52:00
7:52 AM,53.1,48.9,86,29.98,9.0,North,4.6,-,N/A,,Partly Cloudy,360,2012-10-01 12:52:00
8:52 AM,57.9,51.1,78,29.99,10.0,NNW,16.1,21.9,N/A,,Mostly Cloudy,340,2012-10-01 13:52:00
9:52 AM,62.1,48.9,62,30.01,10.0,North,24.2,34.5,N/A,,Overcast,360,2012-10-01 14:52:00
10:52 AM,62.1,48.9,62,30.04,10.0,NNE,24.2,34.5,N/A,,Mostly Cloudy,20,2012-10-01 15:52:00
11:52 AM,68.0,48.9,50,30.04,10.0,NNE,24.2,36.8,N/A,,Clear,20,2012-10-01 16:52:00
12:52 PM,72.0,48.0,43,30.02,10.0,NNE,19.6,35.7,N/A,,Partly Cloudy,20,2012-10-01 17:52:00
1:52 PM,72.0,45.0,38,30.00,10.0,NNE,23.0,34.5,N/A,,Partly Cloudy,20,2012-10-01 18:52:00
2:52 PM,71.1,44.1,38,30.00,10.0,North,26.5,33.4,N/A,,Mostly Cloudy,360,2012-10-01 19:52:00
3:52 PM,73.0,43.0,34,29.99,10.0,North,23.0,34.5,N/A,,Partly Cloudy,350,2012-10-01 20:52:00
4:52 PM,72.0,42.1,34,29.99,10.0,North,23.0,34.5,N/A,,Partly Cloudy,350,2012-10-01 21:52:00
5:52 PM,71.1,41.0,34,29.99,10.0,North,23.0,31.1,N/A,,Partly Cloudy,350,2012-10-01 22:52:00
6:52 PM,66.9,39.9,37,30.00,10.0,North,17.3,25.3,N/A,,Partly Cloudy,360,2012-10-01 23:52:00
7:52 PM,60.1,39.9,47,30.03,10.0,North,9.2,-,N/A,,Clear,360,2012-10-02 00:52:00
8:52 PM,55.0,41.0,59,30.05,10.0,North,9.2,-,N/A,,Clear,350,2012-10-02 01:52:00
9:52 PM,53.6,39.2,58,30.09,10.0,North,9.2,-,N/A,,Clear,350,2012-10-02 02:52:00
10:52 PM,52.0,41.0,66,30.07,10.0,North,8.1,-,N/A,,Clear,360,2012-10-02 03:52:00
11:52 PM,48.0,39.9,74,30.07,10.0,North,6.9,-,N/A,,Clear,350,2012-10-02 04:52:00